RH
48 45 45 30 32 25 22 20 21 21 18 17 17 21 20 29 27 25 31 98 97 93 64 34 28 22 17 16 15 14 13 12 13 17 23 35 45 52 49 47 43 40 33 27 25 24 24 27 30
24 30 30 32 28 29 24 20 18 22 31 17 22 26 19 18 18 18 20 22 24 41 29 22 21 25 25 25 20 15 16 17 16 20 26 36 47 55 59 55 49 44 36 32 32 29 28 30 31
24 26 44 30 28 21 18 17 22 49 34 41 27 29 25 20 16 13 15 21 21 16 13 13 13 21 30 35 29 19 18 18 18 24 28 28 32 47 53 55 49 44 44 40 42 46 38 35 31
31 23 49 32 25 15 21 28 30 35 61 72 35 42 43 57 35 32 32 30 29 24 25 24 20 19 26 23 28 20 20 21 19 19 22 29 32 43 52 51 49 47 44 60 65 50 37 40 35
28 32 24 13 19 24 30 39 27 38 49 91 70 65 93 70 69 51 62 51 56 57 40 32 37 42 30 20 22 22 21 20 23 21 20 22 28 44 51 48 45 48 75 61 51 61 56 56 50
29 34 36 26 18 36 65 53 22 29 58 86 92 38 84 100 90 72 77 83 73 76 72 48 38 34 30 33 36 35 25 25 26 26 22 25 30 34 39 62 62 59 56 52 47 45 44 55 56
55 43 46 59 56 65 64 44 17 21 25 31 50 40 48 99 98 96 93 100 94 78 71 63 42 37 36 30 43 75 60 41 37 46 38 31 35 29 41 57 58 58 82 96 80 78 64 49 35
84 64 82 73 89 76 95 32 19 23 29 33 40 33 38 99 100 100 100 97 100 97 98 93 76 51 44 50 52 58 92 84 51 40 99 86 77 41 24 20 24 28 72 94 100 100 100 81 57
100 69 56 26 74 100 75 26 23 32 49 31 31 34 34 44 68 94 100 98 93 100 100 100 100 100 95 76 56 70 96 100 96 63 59 36 46 59 61 32 29 28 35 48 61 84 100 100 100
98 99 48 33 40 100 29 17 21 24 27 29 31 37 37 44 67 96 100 100 100 100 99 100 100 100 100 100 98 98 99 100 100 98 73 69 56 64 38 36 33 36 30 46 48 45 43 47 74
88 100 93 72 48 68 21 18 22 25 27 29 32 39 45 56 79 100 93 100 100 100 100 100 100 100 99 98 98 100 100 100 100 97 92 81 74 61 48 42 41 26 24 34 48 55 50 34 45
100 100 100 96 28 26 21 22 24 26 28 29 42 46 55 50 52 70 76 72 72 82 99 100 92 99 86 100 84 100 100 100 100 100 100 94 91 64 47 54 49 43 38 28 34 38 59 47 46
99 75 92 67 37 23 20 21 24 29 33 41 50 57 66 69 66 70 75 69 74 95 100 100 86 85 92 100 100 90 100 100 100 100 100 100 92 77 78 61 70 59 46 34 26 40 54 63 49
92 98 96 64 31 31 41 30 29 33 36 41 48 61 66 88 100 100 100 100 81 80 80 60 75 57 61 73 49 78 99 100 100 100 100 100 100 90 88 75 92 86 74 52 38 34 46 56 51
60 95 71 49 49 51 54 36 31 31 32 35 41 59 70 83 94 100 100 92 68 71 75 49 46 57 66 79 80 100 99 100 100 100 100 100 100 100 100 92 93 82 96 67 53 72 50 61 85
44 44 66 84 55 51 34 30 30 29 35 41 44 59 72 84 100 97 88 97 100 100 99 75 51 75 56 82 91 100 100 100 97 74 100 100 100 100 100 99 96 86 84 67 58 75 85 67 91
41 50 43 64 58 26 27 29 29 34 37 45 57 67 71 84 93 94 90 95 100 100 80 57 98 62 66 69 86 100 86 88 98 77 100 100 100 100 92 86 100 100 90 68 61 58 97 97 100
21 23 26 24 26 27 28 29 33 39 50 62 64 63 63 67 64 65 90 100 81 88 93 100 100 69 84 100 98 98 99 99 92 100 100 76 63 89 100 100 100 100 97 76 60 53 75 81 100
45 53 42 36 37 36 40 45 50 49 53 60 77 92 100 76 72 92 75 70 68 99 100 100 100 61 83 100 100 100 100 79 67 65 77 92 69 75 100 100 100 100 88 76 74 64 48 100 100
22 20 38 39 42 49 54 58 84 100 96 90 98 89 86 86 87 94 81 90 94 99 100 100 92 69 78 83 97 100 100 99 93 68 66 93 100 100 100 100 100 100 93 100 93 74 70 79 90
26 28 30 32 35 48 62 75 100 100 98 100 90 96 99 98 100 100 100 100 86 62 98 98 89 88 82 77 100 100 100 90 90 100 100 100 100 89 100 100 100 100 86 91 98 96 96 100 100
31 37 49 54 60 59 65 75 100 100 100 77 100 98 100 100 100 100 100 100 69 67 79 77 72 100 90 88 100 100 100 77 74 82 100 88 97 84 100 100 100 99 100 95 90 97 100 100 100
55 59 71 66 82 80 99 100 100 78 72 75 89 87 100 100 100 100 100 77 87 87 74 79 100 100 85 74 100 100 100 100 100 100 100 86 81 79 98 100 90 100 100 100 92 100 100 100 100
95 90 86 80 98 64 100 100 94 79 87 96 100 100 91 100 100 86 72 80 78 84 94 77 85 99 88 88 100 100 100 100 95 100 98 100 95 100 90 82 95 100 98 100 100 100 100 100 100
100 77 91 98 97 95 98 99 100 97 100 100 100 98 81 99 100 74 74 74 90 99 100 99 89 90 100 100 100 100 100 100 100 100 100 100 100 100 100 75 71 99 100 100 100 100 100 100 100
100 100 100 100 97 100 70 85 100 100 100 100 100 99 100 100 100 100 100 100 100 100 97 94 98 85 95 85 87 100 100 100 100 100 100 100 100 100 100 100 100 89 83 88 97 100 100 100 100
100 100 100 87 67 69 76 94 100 100 100 100 100 100 100 100 100 100 100 100 100 100 100 100 98 100 94 79 76 87 100 100 100 100 100 99 99 100 100 100 100 100 99 87 91 95 100 100 100
93 76 74 75 89 92 100 95 100 100 100 100 100 100 100 100 100 100 100 100 100 100 96 97 97 97 97 91 72 56 66 92 100 100 100 100 100 88 69 76 79 67 88 100 72 97 100 100 100
90 75 90 99 100 100 100 100 100 100 100 100 100 100 100 100 100 100 100 99 91 77 58 58 49 37 38 61 71 62 56 53 68 76 89 100 100 100 100 100 95 80 76 100 64 65 92 100 100
78 97 100 100 100 100 100 100 100 100 100 100 100 100 100 100 90 80 79 52 55 42 28 22 12 11 12 14 19 31 44 42 42 45 54 66 82 96 100 100 100 100 100 100 76 78 63 100 100
Wind_Speed
19 17 18 17 18 13 12 11 11 12 10 10 9 8 11 7 11 22 23 14 22 18 21 24 22 23 25 29 35 39 40 44 49 50 50 50 50 51 52 53 52 51 50 50 52 54 55 58 61
17 18 17 15 10 6 9 10 12 9 11 9 10 15 16 17 15 16 19 25 34 25 31 31 27 28 25 26 30 34 33 36 42 47 50 50 50 50 47 48 51 50 50 49 49 51 52 52 57
16 17 16 15 12 7 10 10 10 9 7 12 14 19 19 21 11 15 12 24 31 32 39 36 37 34 34 35 28 26 28 32 35 43 45 47 49 47 43 44 44 46 46 48 49 49 50 52 55
18 19 17 18 13 8 6 7 9 7 10 12 12 19 19 18 16 14 16 20 24 30 35 41 40 39 40 36 33 32 29 26 27 34 41 46 45 45 44 41 41 40 44 41 43 48 52 51 54
19 21 17 13 11 14 12 14 11 8 8 13 13 17 18 21 22 27 28 28 22 27 33 36 36 36 40 42 37 36 39 35 29 28 28 33 41 41 41 40 39 40 42 40 46 47 50 49 50
17 22 23 20 17 21 16 14 14 11 16 16 18 15 22 23 24 25 24 30 30 30 30 32 32 33 37 37 41 45 44 40 41 38 38 26 25 32 39 38 40 42 43 45 50 50 50 50 48
21 22 25 27 27 21 12 16 8 11 7 10 15 18 21 24 27 36 29 33 33 33 33 33 34 36 39 42 47 43 44 45 40 43 41 30 30 32 27 28 35 43 43 46 49 49 51 49 47
22 17 23 25 33 32 17 15 17 22 23 25 25 25 19 26 32 34 41 39 41 40 42 42 40 40 39 43 50 54 53 44 35 36 36 45 34 43 39 36 38 38 49 52 52 51 54 56 49
31 19 22 22 21 20 19 13 20 22 25 29 31 35 33 35 36 33 35 40 37 40 39 43 47 48 51 49 45 52 54 52 45 38 38 34 40 47 45 45 43 41 40 41 47 55 59 59 56
32 23 21 22 22 19 12 9 12 21 27 32 37 40 39 40 41 41 40 41 45 46 46 50 53 52 54 53 56 53 54 58 53 44 40 43 39 40 39 47 42 47 44 46 43 46 48 50 54
29 33 27 26 24 18 22 19 22 28 34 37 42 44 42 44 44 41 43 46 51 55 60 62 65 64 59 54 55 57 55 55 56 47 49 43 38 40 46 45 42 44 43 48 52 49 51 44 46
31 28 29 25 18 18 21 28 30 31 33 35 42 46 49 38 40 46 50 52 54 65 72 74 75 76 76 70 61 57 57 58 56 54 56 53 46 46 50 47 44 39 43 45 51 56 53 49 48
33 35 33 20 19 13 17 22 25 37 39 42 46 52 57 60 56 56 59 58 58 62 67 75 78 79 81 77 68 64 62 54 57 56 61 55 53 53 50 48 41 39 40 43 46 54 57 51 50
27 25 20 23 24 25 27 33 40 47 47 50 53 55 58 60 67 70 71 73 70 64 70 72 85 81 84 85 75 66 67 56 57 57 59 60 60 59 50 48 42 41 40 41 45 50 56 55 52
24 22 17 27 28 36 33 39 48 51 53 58 60 61 62 63 67 68 71 73 74 68 71 76 82 86 79 69 57 55 66 64 54 52 58 65 64 61 53 51 47 47 43 43 45 49 52 58 52
17 16 21 33 33 39 36 36 47 51 56 60 60 64 68 71 70 67 72 79 88 86 85 90 91 86 75 56 49 61 69 60 55 48 57 57 71 65 62 57 54 51 50 45 44 50 53 58 55
25 24 27 35 40 37 46 47 50 57 64 66 68 69 70 71 75 77 79 84 94 95 92 88 96 81 67 51 52 55 65 57 54 54 61 67 63 69 66 66 67 63 56 48 46 48 53 57 59
17 21 23 27 36 41 45 46 54 59 66 72 73 78 77 79 79 77 80 84 90 89 92 95 98 79 60 59 59 53 61 58 59 60 63 61 64 65 70 68 68 68 58 54 56 51 52 57 59
36 43 42 36 43 44 44 42 51 67 76 74 73 80 86 82 81 77 83 90 102 92 93 99 98 76 64 62 63 61 58 61 59 59 63 63 63 67 74 79 77 68 63 59 51 52 53 58 60
34 34 45 48 52 57 53 50 55 61 70 74 78 78 80 86 84 87 98 95 106 88 94 92 85 67 66 60 68 64 62 58 59 61 62 61 66 71 74 73 72 72 59 54 54 52 56 59 63
39 42 46 46 49 59 62 53 67 73 76 81 88 87 85 97 97 91 98 106 94 84 83 76 67 61 65 60 56 64 67 65 61 56 56 64 70 71 74 75 67 58 54 54 57 57 58 60 61
47 54 52 51 49 51 71 62 53 79 83 88 88 83 93 101 101 101 106 112 86 75 70 70 61 61 66 59 58 54 66 69 71 71 69 71 72 71 69 65 62 60 56 51 54 59 60 61 66
57 60 57 60 58 58 69 79 70 87 95 88 81 87 101 109 104 111 110 93 78 78 65 55 57 55 59 60 61 69 68 67 68 74 74 72 74 76 79 74 68 62 62 61 59 60 63 66 69
72 71 71 70 68 77 74 81 93 95 93 96 108 110 114 116 110 102 80 77 77 84 80 64 55 53 55 55 64 70 66 73 80 71 72 71 74 76 83 78 73 72 62 60 64 66 67 68 68
70 76 80 78 87 85 87 88 98 98 96 109 114 121 113 108 106 91 85 86 85 86 80 78 67 58 58 63 62 63 73 77 69 73 74 78 78 74 73 87 83 80 78 67 63 68 67 72 74
81 86 85 96 96 95 96 93 95 103 111 118 127 114 111 109 108 106 101 95 91 86 87 88 83 75 68 68 71 70 69 72 82 85 87 87 84 83 81 83 82 80 79 78 67 72 71 67 72
89 92 99 108 107 105 97 94 95 117 120 129 122 107 109 111 110 103 100 100 100 98 97 96 91 84 84 80 75 79 78 78 78 81 87 93 98 92 85 82 82 74 75 74 73 72 71 71 73
89 99 110 112 113 110 104 97 108 112 125 131 125 116 121 116 110 107 111 111 102 98 96 94 93 91 91 92 88 82 87 88 90 90 87 91 96 99 103 98 95 91 81 79 78 71 69 68 75
106 114 116 114 108 112 119 121 115 123 136 132 118 123 120 120 118 118 114 110 106 101 97 97 97 96 96 98 98 91 90 97 101 102 99 94 93 93 97 93 93 96 91 75 81 74 61 64 70
116 111 106 110 122 127 134 129 133 140 138 132 135 121 121 113 108 107 107 105 104 104 101 103 100 96 94 92 94 96 100 101 103 107 108 111 108 100 96 96 103 100 96 93 91 84 76 61 76
Wind_Direction
280 278 275 272 265 276 275 295 293 298 285 265 270 308 237 335 286 240 252 264 261 307 290 292 298 291 285 286 277 275 280 277 268 265 264 265 265 265 266 265 262 260 260 261 261 260 259 258 255
283 280 275 271 268 286 292 306 312 292 17 291 354 8 6 260 301 288 290 310 319 303 307 311 299 300 299 299 294 275 280 281 276 269 266 265 263 265 267 268 266 262 261 260 264 263 261 260 259
299 288 280 268 266 272 296 302 272 341 24 353 11 20 36 39 313 13 332 357 341 315 327 318 307 306 314 310 306 287 292 285 273 272 269 269 269 269 268 265 266 263 263 264 265 266 264 261 260
292 303 278 282 289 286 280 324 288 314 345 342 350 339 353 343 355 353 352 357 354 346 351 343 329 324 311 310 309 298 301 302 299 279 273 271 269 271 270 268 269 270 266 265 261 260 261 261 263
295 298 284 286 279 282 282 327 312 292 306 328 316 314 313 310 325 330 329 332 330 326 337 334 326 318 322 317 318 316 309 305 306 295 302 285 272 273 274 273 269 267 263 262 265 262 262 265 265
289 291 285 286 282 295 293 305 335 312 301 312 309 312 306 300 312 305 312 313 320 317 318 314 314 312 310 313 315 319 318 318 311 307 307 296 295 286 273 273 272 268 265 268 267 265 266 264 265
289 297 284 272 285 294 337 309 347 329 323 301 291 307 313 310 301 305 307 305 308 310 309 308 302 302 305 307 305 310 312 315 316 315 310 307 288 298 295 285 278 278 274 274 273 274 272 274 275
269 303 290 291 284 285 313 317 305 301 306 303 299 297 305 301 297 296 301 305 305 309 307 305 302 295 297 300 301 301 302 297 305 306 303 303 287 304 299 286 280 282 267 267 266 270 272 274 277
281 283 284 297 309 315 322 314 306 303 301 303 300 299 300 296 301 307 302 300 303 309 314 314 310 308 303 301 301 300 300 293 291 292 293 293 295 301 295 303 295 291 281 276 272 270 271 274 272
301 273 299 293 298 308 288 332 325 307 300 301 295 296 299 298 300 301 300 295 294 295 303 306 309 309 309 306 296 290 290 296 287 285 288 288 289 293 289 306 295 295 291 278 280 278 277 278 279
291 273 298 285 281 269 303 319 315 307 301 296 299 303 305 302 299 293 296 301 303 303 302 300 302 300 303 302 298 286 279 285 283 288 290 281 277 285 291 294 291 297 294 289 279 278 276 280 275
277 280 293 274 269 269 287 303 303 302 296 296 304 302 301 297 296 295 295 297 297 299 300 300 296 296 297 300 295 281 280 279 274 276 287 280 273 281 288 285 284 285 293 299 287 279 271 277 281
272 286 287 257 253 268 329 324 318 304 304 307 304 301 300 300 298 299 298 297 296 300 304 303 300 298 297 296 293 283 271 270 274 273 277 268 272 274 280 279 276 285 289 298 300 281 276 275 277
276 285 277 261 260 268 300 311 307 298 301 299 295 295 297 300 302 304 302 301 303 301 301 302 302 294 291 287 287 285 277 265 268 271 270 268 266 271 272 270 271 278 281 292 296 294 283 279 274
277 280 281 268 269 278 290 299 297 299 298 297 298 299 297 294 293 295 299 304 303 303 299 303 301 297 294 284 281 269 273 270 268 264 269 265 267 265 267 267 272 281 277 284 294 291 290 279 271
281 271 273 284 281 286 291 287 290 295 293 289 290 289 287 288 290 290 294 300 301 308 306 300 308 298 294 281 265 268 267 268 263 266 263 268 265 264 270 269 269 274 277 281 286 286 284 280 274
280 275 267 274 279 277 289 295 297 296 287 284 283 285 286 287 287 290 295 300 298 304 304 305 307 299 293 267 249 260 261 258 254 264 263 264 267 265 268 271 270 271 275 282 289 284 279 274 271
303 296 274 283 286 286 293 302 297 300 296 289 293 293 298 295 297 301 300 301 300 294 298 299 305 297 283 254 249 251 255 258 256 259 264 265 263 263 265 266 265 265 269 283 286 283 276 274 268
291 284 280 278 288 300 308 303 297 290 292 291 299 295 292 299 300 299 296 304 308 302 295 294 298 294 282 263 253 254 255 254 256 253 259 267 267 267 264 263 264 266 269 279 274 276 279 266 266
292 301 280 277 279 283 289 310 303 301 291 295 294 296 296 299 304 302 304 305 310 299 295 294 297 287 280 269 257 256 252 253 256 260 262 268 265 260 257 262 265 264 271 267 267 269 270 267 265
288 300 288 287 299 290 293 313 295 296 300 295 300 297 297 301 301 299 298 304 307 297 294 295 289 282 277 265 264 259 253 253 252 254 256 258 255 258 264 261 260 264 264 265 263 264 265 261 259
300 295 290 292 300 303 304 300 304 297 302 306 298 295 300 304 303 300 299 304 302 299 294 290 280 275 276 262 251 252 248 251 249 247 252 252 259 263 263 264 263 263 263 264 263 263 259 260 260
296 306 301 296 298 306 302 294 306 309 307 304 297 300 305 305 301 300 301 301 301 306 301 291 275 269 269 264 254 255 246 241 241 243 245 251 255 257 262 264 267 265 264 264 267 259 258 257 261
299 306 306 302 300 312 299 298 305 309 309 308 310 309 309 305 301 304 302 304 300 305 308 300 280 270 263 263 257 254 251 249 246 243 244 244 251 255 253 259 262 266 268 264 259 254 255 258 265
298 297 301 305 304 305 304 302 304 308 307 308 309 308 309 306 307 308 308 308 306 303 303 302 294 278 259 261 257 260 254 250 246 241 240 241 242 247 254 255 252 262 265 265 261 257 254 259 266
295 298 301 305 304 301 302 304 305 305 307 309 310 309 305 308 313 315 309 308 303 300 298 298 294 284 274 260 256 257 258 257 251 246 239 237 239 244 247 255 257 256 263 263 263 258 256 261 266
296 298 300 301 299 299 302 302 303 305 306 309 313 305 305 310 313 307 302 301 299 298 297 295 292 286 282 274 259 252 254 255 256 253 252 247 239 242 246 248 252 254 257 259 260 262 258 263 265
295 299 302 299 299 300 301 301 305 307 307 313 312 311 315 313 306 298 298 299 296 290 286 284 280 277 275 272 267 252 246 251 250 249 248 248 249 248 246 250 253 253 252 256 257 255 261 265 272
300 304 302 300 299 301 301 307 312 309 309 310 313 315 311 304 301 299 297 295 292 290 286 283 277 271 266 265 264 261 255 246 247 245 244 247 244 244 245 247 252 255 256 248 255 254 255 272 266
308 303 300 303 305 306 306 312 311 308 311 315 316 308 301 298 295 293 290 290 291 287 283 280 278 277 275 269 262 257 256 254 248 246 245 243 243 243 241 242 245 248 250 253 256 258 250 261 262